WetterOnline ( http://www.wetteronline.de )

Wetter aktuell Schönwald

Aktuelles Wetter: Baruth (55m)

6-stündlich | Neueste Meldungen
Ortszeit Temperatur Wetter
Do, 21.03. 19:00 9.0° C wolkenlos
Do, 21.03. 13:00 12.2° C bedeckt
Do, 21.03. 7:00 8.6° C bedeckt
Do, 21.03. 1:00 9.4° C bedeckt
Mi, 20.03. 19:00 9.8° C bedeckt
Mi, 20.03. 13:00 11.5° C fast wolkenlos
Mi, 20.03. 7:00 -2.7° C wolkenlos
Mi, 20.03. 1:00 -1.0° C wolkenlos
Ortszeit Temperatur Wetter
Do, 21.03. 22:30 4.2° C leicht bewölkt
Do, 21.03. 22:20 4.2° C leicht bewölkt
Do, 21.03. 22:10 4.5° C leicht bewölkt
Do, 21.03. 22:00 5.0° C leicht bewölkt
Do, 21.03. 21:50 5.0° C leicht bewölkt
Do, 21.03. 21:40 4.6° C Nebel
Do, 21.03. 21:30 5.1° C leicht bewölkt
Do, 21.03. 21:00 6.2° C wolkig
Do, 21.03. 20:30 5.8° C leicht bewölkt
Do, 21.03. 20:00 6.2° C leicht bewölkt
Do, 21.03. 19:30 8.4° C wolkenlos
Ortszeit Relative Feuchte Sichtweite
Do, 21.03. 19:00 88% 7 km
Do, 21.03. 13:00 72% 11 km
Do, 21.03. 7:00 79% 11 km
Do, 21.03. 1:00 69% 17 km
Mi, 20.03. 19:00 61% 26 km
Mi, 20.03. 13:00 49% 27 km
Mi, 20.03. 7:00 92% 23 km
Mi, 20.03. 1:00 92% 35 km
Ortszeit Relative Feuchte Sichtweite
Do, 21.03. 22:30 98% 2.1 km
Do, 21.03. 22:20 98% -
Do, 21.03. 22:10 97% -
Do, 21.03. 22:00 99% 2.8 km
Do, 21.03. 21:50 99% -
Do, 21.03. 21:40 97% -
Do, 21.03. 21:30 99% 5.0 km
Do, 21.03. 21:00 97% 3.2 km
Do, 21.03. 20:30 98% 2.8 km
Do, 21.03. 20:00 93% 2.0 km
Do, 21.03. 19:30 89% 6 km
Ortszeit Niederschlagsmenge Niederschlagsart
Do, 21.03. 19:00 0.0 l/m2 in 12 Std. -
Do, 21.03. 13:00 0.0 l/m2 in 6 Std. -
Do, 21.03. 7:00 0.0 l/m2 in 12 Std. -
Do, 21.03. 1:00 0.0 l/m2 in 6 Std. -
Mi, 20.03. 19:00 0.0 l/m2 in 12 Std. -
Mi, 20.03. 13:00 0.0 l/m2 in 6 Std. -
Mi, 20.03. 7:00 0.0 l/m2 in 12 Std. -
Mi, 20.03. 1:00 0.0 l/m2 in 6 Std. -
Ortszeit Niederschlagsmenge Niederschlagsart
Do, 21.03. 22:30 0.0 l/m2 in 1 Std. -
Do, 21.03. 22:20 keine Meldung -
Do, 21.03. 22:10 keine Meldung -
Do, 21.03. 22:00 0.0 l/m2 in 1 Std. -
Do, 21.03. 21:50 keine Meldung -
Do, 21.03. 21:40 keine Meldung -
Do, 21.03. 21:30 0.0 l/m2 in 1 Std. -
Do, 21.03. 21:00 0.0 l/m2 in 1 Std. -
Do, 21.03. 20:30 0.0 l/m2 in 1 Std. -
Do, 21.03. 20:00 0.0 l/m2 in 1 Std. -
Do, 21.03. 19:30 0.0 l/m2 in 1 Std. -
Ortszeit Stärke Spitze Richtung
km/h Bft. km/h Grad Sektor
Do, 21.03. 19:00 2 1 28 240° SW
Do, 21.03. 13:00 14 3 25 270° W
Do, 21.03. 7:00 9 2 17 260° W
Do, 21.03. 1:00 11 2 18 260° W
Mi, 20.03. 19:00 7 2 33 230° SW
Mi, 20.03. 13:00 14 3 29 220° SW
Mi, 20.03. 7:00 2 1 11 110° O
Mi, 20.03. 1:00 7 2 11 250° W
Ortszeit Stärke Spitze Richtung
km/h Bft. km/h Grad Sektor
Do, 21.03. 22:30 2 1 4 300° NW
Do, 21.03. 22:20 2 1 - 300° NW
Do, 21.03. 22:10 4 1 - 290° W
Do, 21.03. 22:00 2 1 7 270° W
Do, 21.03. 21:50 2 1 - 270° W
Do, 21.03. 21:40 4 1 - 200° S
Do, 21.03. 21:30 4 1 7 160° S
Do, 21.03. 21:00 0 0 4 - -
Do, 21.03. 20:30 2 1 4 190° S
Do, 21.03. 20:00 0 0 4 - -
Do, 21.03. 19:30 2 1 4 330° NW
Ortszeit Untergrenze Bedeckung Gattung
total tief tief mittel hoch
Do, 21.03. 19:00 - 0/8 0/8 - - -
Do, 21.03. 13:00 630 m 8/8 8/8 - - -
Do, 21.03. 7:00 990 m 8/8 8/8 - - -
Do, 21.03. 1:00 930 m 8/8 8/8 - - -
Mi, 20.03. 19:00 1500 m 8/8 8/8 - - -
Mi, 20.03. 13:00 1260 m 1/8 1/8 - - -
Mi, 20.03. 7:00 - 0/8 0/8 - - -
Mi, 20.03. 1:00 - 0/8 0/8 - - -
Ortszeit Bedeckungsgrad in Achtel und Wolkenuntergrenze
Do, 21.03. 22:30 2(9000m) 4(9000m)
Do, 21.03. 22:20 2(9000m) 4(9000m)
Do, 21.03. 22:10 1(<30m) 3(9000m)
Do, 21.03. 22:00 2(<30m) 4(9000m) 5(9000m)
Do, 21.03. 21:50 2(<30m) 4(9000m) 5(9000m)
Do, 21.03. 21:40 4(9000m) 6(9000m)
Do, 21.03. 21:30 1(8400m) 5(9000m)
Do, 21.03. 21:00 7(8700m) 6(9000m)
Do, 21.03. 20:30 4(8700m) 5(9000m)
Do, 21.03. 20:00 6(8700m) 7(9000m)
Do, 21.03. 19:30 1(9000m)
Ortszeit Luftdruck NN (hPa) Tendenz (hPa in 3 Std.)
Do, 21.03. 19:00 1033 - 0,2
Do, 21.03. 13:00 1034 - 0,6
Do, 21.03. 7:00 1034 + 0,4
Do, 21.03. 1:00 1034 + 0,8
Mi, 20.03. 19:00 1033 0,0
Mi, 20.03. 13:00 1033 - 0,4
Mi, 20.03. 7:00 1033 + 1,0
Mi, 20.03. 1:00 1032 + 1,4
Ortszeit Luftdruck NN (hPa) Tendenz (hPa in 3 Std.)
Do, 21.03. 22:30 1033 + 0,4
Do, 21.03. 22:20 1033 keine Meldung
Do, 21.03. 22:10 1033 keine Meldung
Do, 21.03. 22:00 1033 + 0,6
Do, 21.03. 21:50 1033 keine Meldung
Do, 21.03. 21:40 1033 keine Meldung
Do, 21.03. 21:30 1033 + 0,5
Do, 21.03. 21:00 1033 + 0,4
Do, 21.03. 20:30 1033 + 0,5
Do, 21.03. 20:00 1033 + 0,4
Do, 21.03. 19:30 1033 + 0,1
Ortszeit Schneehöhe (cm)
Do, 21.03. 19:00 0
Do, 21.03. 13:00 0
Do, 21.03. 7:00 0
Do, 21.03. 1:00 0
Mi, 20.03. 19:00 0
Mi, 20.03. 13:00 0
Mi, 20.03. 7:00 0
Mi, 20.03. 1:00 0
Ortszeit Schneehöhe (cm)
Do, 21.03. 22:30 0
Do, 21.03. 22:20 0
Do, 21.03. 22:10 0
Do, 21.03. 22:00 0
Do, 21.03. 21:50 0
Do, 21.03. 21:40 0
Do, 21.03. 21:30 0
Do, 21.03. 21:00 0
Do, 21.03. 20:30 0
Do, 21.03. 20:00 0
Do, 21.03. 19:30 0
Link zu dieser Seite / Seite empfehlen

Das Wetter in ...